Regional Weather Roundup
Issued by NWS

Home | Current Version | Previous Version | Text Only | Print | Product List | Glossary On
Versions: 1 2 3 4 5 6 7 8 9 10 11 12 13 14 15 16 17 18 19 20 21 22 23 24 25 26 27 28 29 30 31 32 33 34 35 36 37 38 39 40 41 42 43 44 45 46 47 48 49 50
000
ASUS43 KMKX 222300
RWRWI

WISCONSIN REGIONAL WEATHER ROUNDUP
NATIONAL WEATHER SERVICE MILWAUKEE/SULLIVAN WI
600 PM CDT MON MAY 22 2017

NOTE: "FAIR" INDICATES FEW OR NO CLOUDS BELOW 12,000 FEET WITH NO
SIGNIFICANT WEATHER AND/OR OBSTRUCTIONS TO VISIBILITY.

WIZ001-002-006>008-014>016-023>028-230000-
NORTHWEST WISCONSIN

CITY           SKY/WX    TMP DP  RH WIND       PRES   REMARKS
SUPERIOR ARPT  NOT AVBL
ASHLAND        CLOUDY    54  43  66 W6        29.82R
HAYWARD        CLOUDY    55  42  61 CALM      29.82R
SIREN          CLOUDY    57  42  55 CALM      29.83S
CUMBERLAND     CLOUDY    59  41  51 W10       29.82S
RICE LAKE      CLOUDY    59  41  51 W9        29.83S
CHETEK         PTSUNNY   60  44  54 NW9       29.82S
LADYSMITH      CLOUDY    59  45  59 NW7       29.84S
EAU CLAIRE     PTSUNNY   64  43  46 W8        29.80S
MENOMONIE      CLOUDY    63  45  51 W5        29.81S
NEW RICHMOND   PTSUNNY   63  41  44 W6        29.82S
OSCEOLA        PTSUNNY   63  44  49 W9        29.84S
$$

WIZ003>005-009-010-017-018-230000-
NORTH CENTRAL WISCONSIN

CITY           SKY/WX    TMP DP  RH WIND       PRES   REMARKS
MANITOWISH WTR CLOUDY    52  43  72 W7        29.82R
ARBOR VITAE    PTSUNNY   57  45  65 W6        29.81S
WOODRUFF       PTSUNNY   57  45  65 W6        29.81S
RHINELANDER    CLOUDY    59  41  51 W12       29.82R
EAGLE RIVER    PTSUNNY   53  41  62 W8        29.82R
LAND O LAKES   LGT RAIN  51  42  71 W7        29.83R
PHILLIPS       CLOUDY    55  41  60 NW5       29.82R
TOMAHAWK       PTSUNNY   58  39  50 W12G20    29.82R
MEDFORD        PTSUNNY   59  43  54 W10       29.82R
MERRILL        PTSUNNY   61  42  48 W8G20     29.81S
$$

WIZ029-030-035-036-043>047-230000-
CENTRAL WISCONSIN

CITY           SKY/WX    TMP DP  RH WIND       PRES   REMARKS
WAUSAU         PTSUNNY   62  43  49 W16G23    29.80R
MOSINEE        PTSUNNY   63  43  48 W8G16     29.82R
MARSHFIELD     PTSUNNY   64  43  46 W13       29.80S
STEVENS POINT  CLOUDY    64  41  42 W8G22     29.81S
WAUPACA        MOSUNNY   70  42  36 SW10      29.80S
WAUTOMA        CLOUDY    68  49  50 S14G22    29.81S
WISC RAPIDS    PTSUNNY   67  43  41 W10       29.81S
CAMP DOUGLAS   NOT AVBL
$$

WIZ011>013-019>022-031-037>040-048>050-230000-
NORTHEAST WISCONSIN

CITY           SKY/WX    TMP DP  RH WIND       PRES   REMARKS
ANTIGO         CLOUDY    59  43  55 W15G23    29.81S
SHAWANO        PTSUNNY   68  40  36 W9G18     29.78F
OCONTO         CLOUDY    67  42  41 W12G20    29.77F
STURGEON BAY   RAIN      55  47  74 S9        29.79F
GREEN BAY      MOSUNNY   66  53  63 S16G22    29.79S
MANITOWOC      NOT AVBL
APPLETON       MOSUNNY   66  45  45 SW18      29.79S
CLINTONVILLE   CLOUDY    68  41  37 W8G20     29.79S
OSHKOSH        MOSUNNY   67  49  52 SW14G24   29.81F
$$

WIZ032>034-041-042-053>061-230000-
SOUTHWEST WISCONSIN

CITY           SKY/WX    TMP DP  RH WIND       PRES   REMARKS
LA CROSSE      MOSUNNY   71  49  45 W9        29.79F
SPARTA         MOSUNNY   69  47  46 SW8G17    29.82S
VIROQUA        MOSUNNY   67  50  53 N7        29.82F
BOSCOBEL       CLOUDY    68  50  52 SW3       29.81F
PRAIRIE DU CHI CLOUDY    68  50  53 CALM      29.81F
PLATTEVILLE    CLOUDY    67  58  70 SW7       29.84F
$$

WIZ056-057-062-063-064-067-068-230000-
SOUTH CENTRAL WISCONSIN

CITY           SKY/WX    TMP DP  RH WIND       PRES   REMARKS
REEDSBURG      CLOUDY    66  50  57 SW9       29.82F
BARABOO/DELLS  CLOUDY    64  50  60 SW9       29.84S
LONE ROCK      NOT AVBL
MINERAL POINT  CLOUDY    66  55  68 W5        29.84F
MADISON        PTSUNNY   65  52  62 VRB5      29.84F
MIDDLETON      MOSUNNY   67  53  61 SW3       29.85F
WATERTOWN      MOSUNNY   65  53  65 SW9       29.84F
MONROE         CLOUDY    61  55  82 SW24      29.86R
JANESVILLE     CLOUDY    66  52  59 SW15G23   29.85S
$$

WIZ051-052-058>065-066-070>072-230000-
SOUTHEAST WISCONSIN

CITY           SKY/WX    TMP DP  RH WIND       PRES   REMARKS
MILWAUKEE      PTSUNNY   67  51  56 SE9       29.86F
WAUKESHA       MOSUNNY   63  48  59 S7        29.87F
MILWAUKEE/TIMM PTSUNNY   64  46  52 S5        29.87F
RACINE         CLOUDY    63  49  60 SE6       29.88F
KENOSHA        PTSUNNY   70  48  45 SW16G23   29.87F
FOND DU LAC    CLOUDY    65  48  54 SW12      29.84S
SHEBOYGAN      MOSUNNY   65  50  58 SW15G24   29.84S
WEST BEND      LGT RAIN  61  52  72 SW6       29.86F
JUNEAU         PTSUNNY   62  53  72 S7        29.87S
$$

LSZ147-162-230000-
LAKE SUPERIOR

STATION/POSITION TIME  TEMP    WIND        PRES    WAVE
                       AIR SEA DIR/SP/G            HT/PER
                 (UTC) (F)     (DEG/KT/KT) (MB)    (FT/S)
W MID LAKE BUOY  2150   43 37  240/ 12/ 14 1008.7R   2/ 4
DEVILS ISLAND    2200   46     230/ 13/ 15 1009.0R
SAXON HARBOR     2240   55     270/  3/  6 1009.5R
$$

LMZ867-665-643>646-230000-
LAKE MICHIGAN

STATION/POSITION TIME  TEMP    WIND        PRES    WAVE
                       AIR SEA DIR/SP/G            HT/PER
                 (UTC) (F)     (DEG/KT/KT) (MB)    (FT/S)
CHAMBERS ISLAND  2240   57     150/  5/ 11 1007.8F
N MID LAKE BUOY  2150   44 39  180/ 16/ 17 1010.6F   3/ 5
NORTHPORT PIER   2240   51     160/  7/ 13 1008.8F
KEWAUNEE LAKESHO 2230          170/ 10/ 12 1008.9F
SHEBOYGAN LAKESH 2200   64     230/ 19/ 22 1010.4F
PORT WASHINGTON  2240   54      90/  2/  4 1012.2F
ATWATER BUOY     2109   60     250/  8/ 10 1012.4F
MILWAUKEE LAKESH 2230   60     140/  7/  8   N/A
S MID LAKE BUOY  2150   50 45  150/  8/ 10 1013.1F   1/ 3
KENOSHA   LAKESH 2200   69     200/  6/ 10 1011.5
$$

TC  - TEMPERATURE IN CELSIUS
VSB - VISIBILITY IN STATUTE MILES
WCI - WIND CHILL INDEX
HX  - HEAT INDEX





USA.gov is the U.S. government's official web portal to all federal, state and local government web resources and services.